Racecast

Kennedy Jefferson

East End Lightning T&F Youth Development (VA) · 11 · Compare head to head

Athlete rating
Races 85
Seasons 5 2022 — 2026
Speed rating — all races

Track & Field

TF speed rating

2026 TF

East End Lightning T&F Youth Development (VA) · Grade 11

Date Meet Event Result Place Rating Difficulty PR/SR Flags
2026-06-20 Legacy Juneteenth Track Showcase lj 3.64m -0.027
2026-06-20 Legacy Juneteenth Track Showcase 100m 13.92 9th · 1st on team -0.027
2026-06-20 Legacy Juneteenth Track Showcase 200m 29.09 4th · 1st on team -0.027
2026-05-30 Va Beach Flames Invite lj 12' 4.50" -0.023
2026-05-30 Va Beach Flames Invite 200m 28.59 7th · 1st on team -0.023 ★PR SR
2026-05-30 Va Beach Flames Invite 100m 13.93 13th · 2nd on team -0.023 PR SR
2026-05-30 Va Beach Flames Invite 100m 13.89 12th · 1st on team -0.023 ★PR SR
2026-05-24 HR Hurricanes CAT 5 Invite lj 11' 2.50" -0.035
2026-05-24 HR Hurricanes CAT 5 Invite 100m 14.1 16th · 6th on team -0.035 PR SR
2026-05-24 HR Hurricanes CAT 5 Invite 100m 14.08 15th · 5th on team -0.035 PR SR
2026-03-06 AAU Indoor National Championship 60m 8.75 21st · 3rd on team -0.036 ★PR SR
2026-02-22 3rd Annual HRH Winter Storm Classic 55m 7.99 8th · 3rd on team -0.024 ★PR SR
2026-02-22 3rd Annual HRH Winter Storm Classic 55m 8.09 11th · 4th on team -0.024
2026-01-11 Lighting Track Classic 60m 8.91 10th · 4th on team -0.036 PR SR
2026-01-11 Lighting Track Classic 400m 1:13.3 6th · 3rd on team -0.036 ★PR SR
2026-01-03 BWSP Queens and Kings - Meet 1 400m 1:13.99 7th · 2nd on team -0.024 PR SR
2026-01-03 BWSP Queens and Kings - Meet 1 200m 29.29 3rd · 3rd on team -0.024 PR SR
2026-01-03 BWSP Queens and Kings - Meet 1 55m 8.27 8th · 6th on team -0.024 PR SR
2026-01-03 BWSP Queens and Kings - Meet 1 55m 8.06 2nd · 2nd on team -0.024 PR SR
2025-12-21 Grant Holloway Invite 60m 9.21 19th · 3rd on team -0.036 SR

2025 TF

East End Lightning T&F Youth Development (VA) · Grade 10

Date Meet Event Result Place Rating Difficulty PR/SR Flags
2025-07-12 Cannonball Cooper Invite 100m 14.22 4th · 2nd on team -0.027 PR SR
2025-05-31 Va Beach Flames Invite 100m 14.73 8th · 3rd on team -0.023
2025-05-31 Va Beach Flames Invite 200m 30.51 7th · 4th on team -0.023
2025-05-31 Va Beach Flames Invite 100m 14.88 14th · 4th on team -0.023
2025-05-25 HR Hurricanes CAT 5 Invite 100m 14.29 2nd · 2nd on team -0.035 PR SR
2025-05-25 HR Hurricanes CAT 5 Invite 200m 30.37 4th · 2nd on team -0.035 PR SR
2025-05-25 HR Hurricanes CAT 5 Invite 100m 14.64 6th · 4th on team -0.035
2025-05-10 Legends Invitational hosted by Eastend Lightning lj 9-00.50 -0.030
2025-05-10 Legends Invitational hosted by Eastend Lightning 200m 32.01 11th · 3rd on team -0.030
2025-05-10 Legends Invitational hosted by Eastend Lightning 100m 14.51 5th · 2nd on team -0.030 PR SR
2025-03-07 AAU Indoor National Championships 200m 31.61 41st · 4th on team -0.036
2025-03-07 AAU Indoor National Championships 60m 9.24 31st · 4th on team -0.036 SR
2025-02-22 BWSP Queens and Kings Championships 400m 1:20.89 16th · 5th on team -0.014
2025-02-22 BWSP Queens and Kings Championships 55m 8.62 14th · 4th on team -0.014
2025-02-22 BWSP Queens and Kings Championships 55m 8.46 9th · 3rd on team -0.014
2025-02-16 HRH Winter Storm Classic 200m 30.86 4th · 1st on team -0.014 PR SR
2025-02-16 HRH Winter Storm Classic 400m 1:17.92 3rd · 2nd on team -0.014
2025-02-01 BWSP Queens and Kings - Meet 3 200m 31.06 3rd · 2nd on team -0.014
2025-02-01 BWSP Queens and Kings - Meet 3 400m 1:20.23 10th · 3rd on team -0.014
2025-02-01 BWSP Queens and Kings - Meet 3 55m 8.51 4th · 3rd on team -0.014
2025-02-01 BWSP Queens and Kings - Meet 3 55m 8.6 7th · 4th on team -0.014
2025-01-18 BWSP Queens and Kings - Meet 2 55m 8.6 11th · 5th on team -0.014
2025-01-18 BWSP Queens and Kings - Meet 2 200m 30.95 2nd · 2nd on team -0.014 PR SR
2025-01-18 BWSP Queens and Kings - Meet 2 55m 8.5 9th · 3rd on team -0.014
2025-01-18 BWSP Queens and Kings - Meet 2 400m 1:18.38 8th · 3rd on team -0.014
2025-01-04 BWSP Queens and Kings - Meet 1 400m 1:16.4 5th · 3rd on team -0.024 PR SR
2025-01-04 BWSP Queens and Kings - Meet 1 55m 8.64 11th · 6th on team -0.024 SR
2025-01-04 BWSP Queens and Kings - Meet 1 55m 8.43 6th · 3rd on team -0.024 PR SR
2025-01-04 BWSP Queens and Kings - Meet 1 200m 31.07 6th · 2nd on team -0.024 PR SR
2024-12-22 Grant Holloway Invite '24 400m 1:18.57 19th · 3rd on team -0.036 SR
2024-12-22 Grant Holloway Invite '24 200m 31.38 14th · 3rd on team -0.036 PR SR
2024-12-22 Grant Holloway Invite '24 60m 9.26 18th · 5th on team -0.036 SR

2024 TF

East End Lightning T&F Youth Development (VA) · Grade 9

Date Meet Event Result Place Rating Difficulty PR/SR Flags
2024-05-26 HR Hurricanes CAT 5 Invite (CANCELED) (CANCELED) hj 3' 2" -0.019
2024-05-26 HR Hurricanes CAT 5 Invite (CANCELED) (CANCELED) 400m 1:16.48 6th · 1st on team -0.019 PR SR
2024-05-26 HR Hurricanes CAT 5 Invite (CANCELED) (CANCELED) 100m 14.85 2nd · 2nd on team -0.019 PR SR
2024-05-26 HR Hurricanes CAT 5 Invite (CANCELED) (CANCELED) 100m 14.84 1st · 1st on team -0.019 PR SR
2024-05-11 2024 EE Lightning "Legends" Invite hj 3-04.00 -0.043
2024-05-11 2024 EE Lightning "Legends" Invite 200m 33.13 17th · 5th on team -0.043
2024-05-11 2024 EE Lightning "Legends" Invite 100m 15.07 9th · 5th on team -0.043 PR SR
2024-05-05 2024 Technique Relays 400m 1:16.54 14th · 2nd on team -0.015 PR SR
2024-04-13 Speed Capital Richmond javelin 8.78m -0.033
2024-04-13 Speed Capital Richmond 200m 31.61 4th · 2nd on team -0.033 PR SR
2024-04-13 Speed Capital Richmond 100m 15.54 12th · 6th on team -0.033 SR
2024-04-13 Speed Capital Richmond 100m 15.18 9th · 4th on team -0.033 PR SR
2024-03-03 AAU Indoor National Champonships 60m 9.16 5th · 1st on team -0.036 PR SR
2024-03-03 AAU Indoor National Champonships 60m 9.32 16th · 2nd on team -0.036
2024-01-28 2024 Track757 Indoor Invitational 200m 33.09 17th · 3rd on team -0.036
2024-01-28 2024 Track757 Indoor Invitational 60m 9.58 18th · 2nd on team -0.036 PR SR
2024-01-28 2024 Track757 Indoor Invitational 60m 9.45 13th · 1st on team -0.036 PR SR
2024-01-20 BWSP Queens and Kings 400m 1:23.4 11th · 1st on team -0.014
2024-01-20 BWSP Queens and Kings 55m 8.63 14th · 4th on team -0.014 PR SR
2024-01-06 BWSP Queens and Kings 200m 32.6 8th · 2nd on team -0.024 SR
2024-01-06 BWSP Queens and Kings 400m 1:21.03 12th · 5th on team -0.024 PR SR
2024-01-06 BWSP Queens and Kings 55m 8.71 13th · 7th on team -0.024 PR SR

2023 TF

East End Lightning T&F Youth Development (VA) · Grade 8

Date Meet Event Result Place Rating Difficulty PR/SR Flags
2023-07-15 AAU Club Championships 200m 32.15 10th · 3rd on team +0.003 PR SR
2023-07-15 AAU Club Championships 200m 32.31 12th · 4th on team +0.003
2023-07-15 AAU Club Championships 100m 15.2 4th · 1st on team +0.003 PR SR
2023-07-15 AAU Club Championships 100m 15.46 11th · 2nd on team +0.003
2023-02-25 LEGACY INDOOR TRACK SHOWCASE 200m 35.26 6th · 1st on team -0.039 PR SR
2023-02-25 LEGACY INDOOR TRACK SHOWCASE 55m 9.18 5th · 2nd on team -0.039 PR SR
2023-02-25 LEGACY INDOOR TRACK SHOWCASE 55m 9.39 12th · 5th on team -0.039

2022 TF

East End Lightning T&F Youth Development (VA) · Grade 7

Date Meet Event Result Place Rating Difficulty PR/SR Flags
2022-06-26 AAU Region 05 National Qualifier 100m 17.3 30th · 4th on team -0.030 PR SR
2022-06-18 22nd Atlantic Coast Invitational lj DNS -0.030
2022-06-18 22nd Atlantic Coast Invitational 50m 8.5 4th · 1st on team -0.030 ★PR SR
2022-06-18 22nd Atlantic Coast Invitational 200m 37.26 5th · 2nd on team -0.030 PR SR